Weather History for Hot Springs, VA

Change the Weather History Date:

Thursday, January 3, 2013

  Actual Average Record
Temperature  
Mean Temperature 22 °F -  
Max Temperature 28 °F 34 °F 60 °F (2004)
Min Temperature 17 °F 21 °F 1 °F (2014)
Degree Days  
Heating Degree Days 42    
Moisture  
Dew Point 9 °F    
Average Humidity 57    
Maximum Humidity 80    
Minimum Humidity 39    
Precipitation  
Precipitation 0.00 in - - ()
Sea Level Pressure  
Sea Level Pressure 30.07 in    
Wind  
Wind Speed 10 mph (West)    
Max Wind Speed 25 mph    
Max Gust Speed 34 mph    
Visibility 10 miles    
Events Snow    
Averages and records for this station are not official NWS values.
T = Trace of Precipitation, MM = Missing Value Source: NWS Daily Summary

Daily Weather History Graph

Daily Weather History Graph

Search for Another Location

Airport:

Trip Planner

Search our weather history database for the weather conditions in past years. The results will help you decide how hot, cold, wet, or windy it might be!

Date:

Astronomy

Jan. 03, 2013 Rise Set
Actual Time 7:35 AM EST 5:12 PM EST
Civil Twilight 7:06 AM EST 5:41 PM EST
Nautical Twilight 6:33 AM EST 6:14 PM EST
Astronomical Twilight 6:01 AM EST 6:46 PM EST
Moon 11:39 PM EST (1/3) 10:52 AM EST (1/3)
Length of Visible Light 10h 35m
Length of Day
9h 37m
Waning Gibbous, 65% of the Moon is Illuminated
Jan 3
Waning Gibbous
Jan 4
Last Quarter
Jan 11
New
Jan 18
First Quarter
Jan 26
Full

Hourly Weather History & Observations

Time (EST) Temp. Windchill Dew Point Humidity Pressure Visibility Wind Dir Wind Speed Gust Speed Precip Events Conditions
12:15 AM 21.2 °F 13.6 °F 10.4 °F 63% 30.06 in 10.0 mi West 5.8 mph - N/A   Clear
12:35 AM 21.2 °F 13.6 °F 8.6 °F 58% 30.06 in 10.0 mi West 5.8 mph - N/A   Clear
12:55 AM 21.2 °F 14.9 °F 6.8 °F 54% 30.06 in 10.0 mi WSW 4.6 mph - N/A   Clear
1:15 AM 19.4 °F 11.5 °F 8.6 °F 63% 30.05 in 10.0 mi WSW 5.8 mph - N/A   Clear
1:35 AM 21.2 °F 12.6 °F 5.0 °F 50% 30.06 in 10.0 mi West 6.9 mph - N/A   Clear
1:55 AM 21.2 °F 12.6 °F 3.2 °F 46% 30.06 in 10.0 mi West 6.9 mph - N/A   Clear
2:15 AM 21.2 °F 12.6 °F 6.8 °F 54% 30.05 in 10.0 mi West 6.9 mph - N/A   Clear
2:35 AM 19.4 °F 11.5 °F 8.6 °F 63% 30.06 in 10.0 mi West 5.8 mph - N/A   Clear
2:55 AM 19.4 °F 12.8 °F 10.4 °F 68% 30.06 in 10.0 mi West 4.6 mph - N/A   Clear
3:15 AM 19.4 °F 11.5 °F 8.6 °F 63% 30.06 in 10.0 mi West 5.8 mph - N/A   Clear
3:35 AM 19.4 °F 9.5 °F 8.6 °F 63% 30.06 in 10.0 mi West 8.1 mph - N/A   Clear
3:55 AM 21.2 °F 11.7 °F 5.0 °F 50% 30.05 in 10.0 mi West 8.1 mph - N/A   Clear
4:15 AM 19.4 °F 9.5 °F 3.2 °F 49% 30.04 in 10.0 mi WSW 8.1 mph - N/A   Clear
4:35 AM 19.4 °F 8.6 °F 3.2 °F 49% 30.04 in 10.0 mi West 9.2 mph - N/A   Clear
4:55 AM 19.4 °F 8.6 °F 5.0 °F 54% 30.05 in 10.0 mi West 9.2 mph - N/A   Clear
5:15 AM 19.4 °F 9.5 °F 3.2 °F 49% 30.04 in 10.0 mi West 8.1 mph - N/A   Clear
5:35 AM 19.4 °F 7.9 °F 5.0 °F 54% 30.05 in - West 10.4 mph - N/A   Clear
5:55 AM 19.4 °F 7.9 °F 1.4 °F 46% 30.05 in - West 10.4 mph - N/A   Clear
6:15 AM 19.4 °F 7.9 °F -0.4 °F 42% 30.06 in - West 10.4 mph - N/A   Clear
6:35 AM 19.4 °F 8.6 °F 1.4 °F 46% 30.07 in - West 9.2 mph - N/A   Clear
6:55 AM 19.4 °F 8.6 °F 1.4 °F 46% 30.07 in - West 9.2 mph - N/A   Clear
7:15 AM 19.4 °F 7.9 °F 5.0 °F 54% 30.08 in - West 10.4 mph - N/A   Clear
7:35 AM 17.6 °F 6.4 °F 5.0 °F 58% 30.08 in - West 9.2 mph - N/A   Clear
7:55 AM 19.4 °F 7.9 °F 3.2 °F 49% 30.08 in - West 10.4 mph - N/A   Clear
8:15 AM 19.4 °F 8.6 °F 1.4 °F 46% 30.08 in - West 9.2 mph - N/A   Clear
8:35 AM 19.4 °F 8.6 °F 1.4 °F 46% 30.08 in - West 9.2 mph - N/A   Clear
8:55 AM 19.4 °F 7.9 °F 1.4 °F 46% 30.08 in - West 10.4 mph - N/A   Clear
9:15 AM 19.4 °F 7.9 °F 3.2 °F 49% 30.09 in - West 10.4 mph - N/A   Clear
9:35 AM 21.2 °F 10.9 °F 5.0 °F 50% 30.09 in - West 9.2 mph - N/A   Clear
9:55 AM 21.2 °F 10.9 °F -0.4 °F 39% 30.10 in - West 9.2 mph - N/A   Clear
10:15 AM 21.2 °F 11.7 °F 1.4 °F 42% 30.10 in - West 8.1 mph - N/A   Clear
10:35 AM 21.2 °F 11.7 °F 3.2 °F 46% 30.10 in - West 8.1 mph - N/A   Clear
10:55 AM 21.2 °F 10.9 °F 6.8 °F 54% 30.10 in - West 9.2 mph - N/A   Clear
11:15 AM 21.2 °F 10.9 °F 6.8 °F 54% 30.10 in - West 9.2 mph - N/A   Clear
11:35 AM 21.2 °F 10.9 °F 8.6 °F 58% 30.08 in - West 9.2 mph - N/A   Clear
11:55 AM 23.0 °F 12.4 °F 8.6 °F 54% 30.07 in - West 10.4 mph - N/A   Clear
12:15 PM 24.8 °F 14.0 °F 8.6 °F 50% 30.06 in - West 11.5 mph - N/A   Clear
12:35 PM 24.8 °F 14.0 °F 10.4 °F 54% 30.06 in - West 11.5 mph - N/A   Clear
12:55 PM 24.8 °F 13.4 °F 10.4 °F 54% 30.05 in - West 12.7 mph - N/A   Clear
1:15 PM 24.8 °F 14.0 °F 10.4 °F 54% 30.05 in - West 11.5 mph 16.1 mph N/A   Clear
1:35 PM 26.6 °F 14.7 °F 12.2 °F 55% 30.04 in - West 15.0 mph 18.4 mph N/A   Clear
1:55 PM 26.6 °F 15.7 °F 12.2 °F 55% 30.04 in - West 12.7 mph 19.6 mph N/A   Clear
2:15 PM 26.6 °F 15.7 °F 12.2 °F 55% 30.04 in - West 12.7 mph - N/A   Clear
2:35 PM 28.4 °F 17.5 °F 12.2 °F 51% 30.04 in - West 13.8 mph 17.3 mph N/A   Clear
2:55 PM 28.4 °F 18.0 °F 12.2 °F 51% 30.05 in - WNW 12.7 mph 19.6 mph N/A   Clear
3:15 PM 28.4 °F 16.6 °F 12.2 °F 51% 30.05 in - West 16.1 mph 21.9 mph N/A   Clear
3:35 PM 28.4 °F 17.5 °F 14.0 °F 55% 30.06 in 10.0 mi West 13.8 mph 19.6 mph N/A   Clear
3:55 PM 28.4 °F 16.6 °F 14.0 °F 55% 30.07 in 4.0 mi WNW 16.1 mph 25.3 mph N/A   Haze
4:15 PM 28.4 °F 17.5 °F 14.0 °F 55% 30.08 in 10.0 mi WNW 13.8 mph - N/A   Clear
4:35 PM 28.4 °F 16.2 °F 12.2 °F 51% 30.08 in 10.0 mi West 17.3 mph 24.2 mph N/A   Clear
4:55 PM 26.6 °F 14.7 °F 14.0 °F 59% 30.09 in 10.0 mi West 15.0 mph 24.2 mph N/A   Clear
5:15 PM 26.6 °F 15.2 °F 12.2 °F 55% 30.09 in 10.0 mi WNW 13.8 mph 23.0 mph N/A   Clear
5:35 PM 26.6 °F 14.3 °F 12.2 °F 55% 30.09 in 10.0 mi West 16.1 mph 20.7 mph N/A   Clear
5:55 PM 26.6 °F 14.7 °F 12.2 °F 55% 30.09 in 10.0 mi West 15.0 mph 23.0 mph N/A   Clear
6:15 PM 24.8 °F 12.4 °F 12.2 °F 59% 30.09 in - West 15.0 mph 24.2 mph N/A   Clear
6:35 PM 24.8 °F 11.5 °F 12.2 °F 59% 30.09 in - West 17.3 mph 21.9 mph N/A   Clear
6:55 PM 24.8 °F 10.7 °F 12.2 °F 59% 30.09 in - West 19.6 mph 25.3 mph N/A   Clear
7:15 PM 24.8 °F 9.6 °F 12.2 °F 59% 30.09 in - West 23.0 mph 28.8 mph N/A   Clear
7:35 PM 24.8 °F 11.1 °F 12.2 °F 59% 30.10 in - West 18.4 mph 25.3 mph N/A   Clear
7:55 PM 24.8 °F 10.7 °F 12.2 °F 59% 30.10 in - West 19.6 mph 29.9 mph N/A   Clear
8:15 PM 24.8 °F 9.6 °F 14.0 °F 64% 30.10 in - WNW 23.0 mph 28.8 mph N/A   Clear
8:35 PM 23.0 °F 7.6 °F 14.0 °F 68% 30.10 in - WNW 21.9 mph 26.5 mph N/A   Clear
8:55 PM 23.0 °F 7.2 °F 15.8 °F 74% 30.09 in - West 23.0 mph 31.1 mph N/A   Clear
9:15 PM 23.0 °F 7.2 °F 15.8 °F 74% 30.09 in - West 23.0 mph 29.9 mph N/A   Clear
9:35 PM 23.0 °F 6.6 °F 15.8 °F 74% 30.09 in - West 25.3 mph 32.2 mph N/A   Clear
9:55 PM 23.0 °F 6.6 °F 15.8 °F 74% 30.09 in - West 25.3 mph 31.1 mph N/A   Clear
10:15 PM 21.2 °F 4.9 °F 15.8 °F 80% 30.10 in - West 23.0 mph 34.5 mph N/A Snow Light Snow
10:35 PM 21.2 °F 5.2 °F 15.8 °F 80% 30.10 in - West 21.9 mph 29.9 mph N/A   Scattered Clouds
10:55 PM 21.2 °F 5.2 °F 15.8 °F 80% 30.10 in - West 21.9 mph 31.1 mph N/A   Scattered Clouds
11:15 PM 21.2 °F 4.5 °F 15.8 °F 80% 30.09 in - West 24.2 mph 32.2 mph N/A   Mostly Cloudy
11:35 PM 21.2 °F 5.6 °F 15.8 °F 80% 30.10 in - WNW 20.7 mph 28.8 mph N/A Snow Light Snow
11:55 PM 21.2 °F 4.9 °F 15.8 °F 80% 30.10 in - WNW 23.0 mph 27.6 mph N/A Snow Light Snow